Wind_Speed
51 54 57 59 60 61 61 61 60 58 53 48 46 46 46 44 40 38 36 34 33 34 35 36 37 38 40 42 45 47 49 52 55 57 59 61 63 65
56 58 60 61 61 61 60 59 58 56 51 44 42 41 42 41 38 34 31 30 30 31 32 33 34 36 38 40 42 44 46 49 53 56 58 59 59 61
60 61 62 61 60 58 57 54 52 51 46 40 37 36 37 37 34 30 27 27 27 28 29 30 32 33 35 37 39 41 43 46 49 53 56 59 59 59
62 62 61 59 57 55 52 49 47 45 42 36 32 32 33 33 29 26 25 24 25 27 28 28 30 31 33 34 36 38 41 44 46 49 52 55 56 57
62 61 58 56 52 49 46 43 41 39 37 31 27 28 28 28 25 23 23 23 23 25 26 27 28 30 31 33 36 38 40 42 44 46 49 52 54 55
59 57 53 50 46 43 40 38 36 34 31 27 23 23 23 22 21 20 20 21 21 22 24 25 26 29 31 33 35 37 39 40 42 43 44 47 51 53
53 50 47 44 40 36 34 33 31 29 25 22 20 18 18 18 17 17 17 18 19 20 21 23 25 27 30 32 34 35 37 39 39 41 42 44 47 50
46 44 41 37 34 31 29 28 25 22 19 18 15 14 13 13 14 14 15 15 15 16 18 20 23 25 27 29 30 31 33 34 38 39 39 41 44 47
41 38 35 32 28 26 24 22 19 16 14 12 11 11 10 11 11 11 11 11 12 13 15 17 19 20 19 19 20 23 26 29 32 35 38 39 42 44
37 33 30 27 24 22 20 17 14 10 8 8 8 7 8 8 8 8 8 8 8 9 10 11 12 12 12 13 13 13 15 20 26 32 35 38 40 44
33 29 25 22 20 18 15 11 7 5 6 6 6 6 6 6 6 6 6 5 4 4 5 5 7 8 7 6 3 4 10 17 24 29 34 37 42 45
29 25 21 18 15 12 8 6 5 6 7 7 7 7 7 7 7 6 5 3 1 2 4 5 7 9 9 7 6 8 14 21 27 31 35 39 43 46
24 20 16 12 8 4 4 6 8 9 10 10 10 9 10 9 8 7 5 5 6 7 8 9 10 12 12 11 12 15 20 25 30 35 38 41 44 45
18 14 10 5 1 4 8 11 12 12 12 11 10 10 10 9 9 8 8 9 10 11 11 12 14 15 15 15 17 21 25 28 32 36 41 44 45 46
13 8 5 3 6 10 13 14 15 14 13 11 11 10 9 9 9 10 11 13 14 14 16 16 18 20 20 20 22 26 29 33 36 39 43 46 48 49
10 7 6 10 13 15 16 16 16 15 13 11 10 10 10 10 11 12 14 16 17 18 19 21 23 24 25 27 28 31 33 37 40 42 44 48 50 49
9 8 10 13 15 17 17 16 15 13 11 10 10 10 10 11 12 14 17 19 20 21 22 23 24 25 28 30 31 33 37 38 39 39 40 42 45 45
10 10 13 16 17 18 17 16 14 13 12 11 10 10 11 12 14 17 20 22 23 24 24 24 25 26 26 27 29 31 33 34 35 38 38 36 34 34
11 12 14 17 19 18 17 15 14 12 11 11 11 11 13 14 17 21 23 24 25 25 25 25 25 25 25 26 27 28 28 29 30 30 30 29 30 31
11 13 16 18 18 18 16 15 13 12 11 12 12 13 15 18 21 23 24 24 24 24 24 24 25 25 25 23 23 24 26 26 26 27 27 28 30 30
12 14 16 18 18 17 16 14 12 12 12 12 12 14 17 20 23 24 24 24 24 23 22 21 22 24 24 23 21 20 21 22 24 26 26 26 26 27
12 14 15 16 17 16 15 13 12 12 12 12 14 16 19 21 23 24 24 24 23 22 20 19 18 19 20 21 20 19 18 19 20 21 22 24 25 25
12 14 14 15 15 14 13 12 12 12 12 13 15 17 19 22 23 23 23 22 21 20 18 17 16 15 16 18 18 18 19 19 20 20 20 21 22 24
Wind_Direction
298 298 298 298 297 297 296 295 295 294 292 287 281 276 273 270 268 267 267 265 261 256 253 250 248 247 245 242 240 239 238 237 237 237 237 236 235 234
299 299 299 298 297 296 295 294 294 293 291 285 279 272 268 267 266 266 264 260 257 253 250 248 247 247 246 244 242 241 241 240 239 238 237 235 234 234
300 300 299 298 297 295 294 293 292 292 290 284 278 268 262 262 263 263 260 257 254 250 248 248 247 247 246 246 245 244 243 242 241 239 238 235 234 233
301 301 300 299 297 295 293 292 291 290 289 283 274 265 259 259 260 260 258 255 252 250 249 249 248 247 247 247 246 246 244 243 242 239 236 234 232 230
302 301 300 299 297 295 293 290 290 290 287 281 269 260 257 257 256 257 256 254 252 250 249 250 249 250 250 249 249 248 247 244 241 238 235 232 228 226
304 303 302 300 297 295 291 289 289 289 284 277 266 257 253 253 254 254 253 254 253 251 251 252 254 254 254 253 253 251 249 246 241 236 232 228 224 222
306 305 304 301 298 294 291 289 288 286 279 272 264 252 247 249 250 250 252 254 253 252 252 255 258 260 260 259 258 255 251 245 239 233 229 225 221 217
309 307 305 303 299 296 292 290 286 279 271 267 257 244 244 246 246 248 251 251 250 251 255 260 266 268 267 265 262 258 251 244 236 228 222 218 214 210
311 309 306 304 300 297 294 290 283 273 262 254 243 239 240 239 240 242 245 241 245 253 262 270 276 278 274 274 271 259 250 239 228 218 211 208 204 201
313 311 308 305 301 298 293 286 278 263 244 231 227 227 227 227 227 228 223 227 243 261 274 285 292 294 293 289 278 256 237 218 205 199 197 195 193 189
313 310 307 304 301 296 288 275 256 226 201 191 190 193 195 196 191 188 194 214 243 276 297 317 337 344 351 342 305 208 185 178 177 178 180 180 180 179
315 311 308 306 302 293 273 236 198 173 162 156 157 157 156 152 153 158 163 163 124 63 52 39 36 41 45 50 81 120 144 154 159 161 165 168 171 173
316 315 313 311 302 275 205 169 157 149 146 147 146 143 141 139 140 139 131 116 99 88 79 69 68 65 65 77 99 114 130 141 148 152 156 160 163 166
324 324 325 326 298 155 147 144 143 141 140 142 142 140 136 133 130 123 115 110 102 97 90 84 81 81 80 91 109 119 127 135 143 148 152 155 158 161
342 350 4 75 121 131 135 136 137 137 137 135 133 133 131 126 122 118 113 112 106 101 98 97 95 93 91 98 110 118 125 131 137 143 147 151 154 157
7 32 79 110 121 128 132 134 134 134 132 128 127 125 124 123 123 119 118 118 113 108 104 105 105 102 100 104 112 120 124 130 134 139 143 147 150 151
36 70 105 118 124 129 131 132 131 129 125 123 124 125 124 124 124 123 124 122 117 115 112 111 111 108 107 110 114 121 125 129 132 136 141 145 149 152
62 89 113 122 126 129 130 129 127 121 117 117 120 125 127 127 127 128 129 125 121 118 118 117 116 113 112 115 117 121 127 131 134 138 141 144 148 154
72 98 118 125 128 130 130 128 124 116 109 107 113 122 128 130 132 132 131 129 125 123 123 122 120 117 117 119 122 126 132 136 138 140 146 152 159 163
82 104 121 128 130 131 130 126 121 113 106 104 110 120 128 132 134 134 133 131 127 125 126 127 126 124 122 123 127 132 138 143 149 153 156 161 166 170
90 108 121 130 133 132 130 125 119 113 108 104 109 121 129 134 136 135 134 132 129 128 129 130 129 128 128 129 132 137 144 151 157 162 166 171 176 179
94 108 121 130 135 136 132 127 120 113 109 106 110 122 129 135 137 137 136 134 133 132 130 130 131 133 133 134 137 143 150 157 164 171 177 181 182 183
99 109 119 129 135 138 136 131 125 117 111 110 114 123 131 135 138 139 139 138 136 134 132 132 135 138 142 144 144 148 153 158 163 168 174 179 181 179
Height
5630 5624 5618 5611 5604 5598 5592 5586 5583 5580 5578 5571 5565 5561 5557 5557 5558 5559 5559 5559 5560 5561 5563 5565 5568 5571 5575 5579 5584 5589 5594 5600 5606 5613 5620 5627 5635 5644
5615 5609 5601 5595 5588 5581 5575 5569 5564 5561 5559 5556 5551 5548 5545 5544 5545 5547 5548 5548 5549 5550 5552 5555 5557 5560 5564 5567 5571 5576 5581 5586 5592 5598 5604 5612 5620 5629
5599 5592 5585 5578 5571 5564 5558 5553 5548 5544 5542 5542 5538 5535 5533 5533 5534 5536 5537 5538 5539 5541 5543 5545 5547 5550 5553 5556 5559 5563 5567 5572 5577 5583 5589 5597 5605 5615
5583 5575 5568 5561 5554 5548 5543 5538 5534 5530 5528 5527 5526 5523 5523 5523 5525 5527 5528 5529 5531 5532 5534 5536 5538 5540 5542 5544 5547 5550 5553 5557 5562 5567 5574 5582 5591 5600
5566 5558 5551 5545 5539 5533 5529 5525 5521 5518 5515 5514 5514 5513 5514 5515 5517 5518 5519 5521 5522 5524 5526 5527 5529 5530 5532 5533 5535 5537 5540 5543 5548 5552 5558 5566 5575 5586
5549 5542 5535 5530 5525 5520 5516 5513 5510 5507 5505 5504 5504 5505 5506 5507 5509 5511 5512 5514 5515 5517 5518 5519 5520 5521 5521 5522 5523 5525 5526 5529 5533 5538 5544 5552 5562 5573
5535 5527 5521 5516 5512 5508 5505 5502 5500 5498 5497 5496 5497 5498 5500 5501 5503 5505 5506 5508 5509 5510 5511 5512 5512 5512 5511 5511 5511 5511 5512 5515 5519 5525 5531 5540 5549 5561
5523 5516 5509 5505 5501 5498 5495 5493 5491 5490 5490 5490 5492 5493 5495 5497 5498 5500 5501 5503 5504 5505 5506 5505 5505 5503 5501 5499 5498 5497 5498 5500 5505 5511 5520 5529 5539 5551
5513 5506 5500 5496 5492 5490 5487 5486 5485 5484 5485 5486 5488 5489 5491 5493 5494 5496 5497 5499 5500 5501 5501 5500 5498 5494 5492 5489 5486 5485 5485 5487 5492 5500 5510 5520 5532 5544
5503 5498 5493 5489 5485 5483 5482 5481 5481 5481 5482 5484 5485 5487 5489 5490 5492 5493 5495 5496 5497 5498 5497 5495 5492 5489 5485 5481 5478 5476 5476 5478 5483 5493 5504 5515 5527 5540
5495 5490 5486 5483 5480 5478 5477 5477 5478 5479 5481 5482 5484 5486 5487 5489 5491 5492 5494 5495 5496 5495 5494 5492 5489 5485 5481 5478 5475 5473 5473 5476 5482 5491 5502 5513 5525 5538
5488 5483 5480 5478 5475 5474 5474 5475 5477 5479 5481 5482 5484 5486 5487 5489 5491 5493 5494 5495 5495 5495 5493 5491 5488 5485 5482 5479 5477 5475 5476 5479 5485 5494 5504 5515 5527 5540
5482 5478 5476 5473 5472 5472 5473 5475 5477 5480 5482 5484 5485 5487 5489 5491 5492 5494 5495 5496 5496 5496 5495 5493 5491 5489 5486 5484 5482 5481 5483 5486 5492 5499 5508 5519 5531 5545
5478 5475 5473 5471 5471 5472 5474 5477 5479 5481 5484 5486 5488 5489 5491 5493 5494 5496 5497 5498 5498 5498 5497 5496 5495 5494 5492 5491 5491 5490 5492 5495 5501 5508 5516 5525 5537 5550
5476 5473 5472 5472 5472 5474 5477 5479 5482 5484 5486 5488 5490 5492 5494 5495 5497 5499 5500 5500 5501 5501 5502 5502 5501 5500 5500 5500 5500 5501 5503 5506 5511 5518 5526 5534 5544 5555
5476 5474 5474 5474 5476 5478 5480 5483 5485 5487 5490 5492 5493 5495 5497 5498 5500 5502 5503 5504 5506 5507 5508 5508 5509 5509 5509 5509 5511 5512 5515 5519 5523 5530 5537 5545 5553 5563
5478 5477 5477 5478 5480 5482 5485 5487 5490 5492 5493 5495 5496 5498 5500 5502 5503 5505 5507 5509 5511 5513 5514 5515 5516 5517 5519 5520 5522 5524 5527 5531 5536 5542 5549 5556 5564 5573
5481 5480 5481 5482 5484 5487 5489 5492 5494 5496 5497 5499 5500 5501 5503 5505 5507 5509 5511 5514 5517 5519 5521 5523 5525 5526 5528 5530 5533 5536 5539 5543 5548 5554 5561 5569 5576 5584
5484 5484 5485 5486 5489 5491 5494 5496 5498 5500 5501 5502 5504 5505 5506 5508 5511 5513 5516 5520 5522 5525 5527 5530 5532 5535 5537 5540 5542 5545 5550 5554 5559 5565 5571 5578 5585 5592
5488 5488 5489 5491 5493 5496 5498 5501 5503 5504 5505 5506 5507 5508 5510 5512 5515 5518 5522 5525 5528 5531 5534 5536 5539 5541 5544 5548 5551 5554 5558 5562 5568 5573 5579 5585 5591 5597
5492 5493 5494 5496 5498 5501 5503 5505 5507 5508 5509 5510 5511 5513 5514 5517 5520 5524 5527 5531 5534 5537 5540 5543 5545 5547 5550 5554 5558 5562 5566 5570 5574 5578 5583 5588 5594 5599
5497 5497 5498 5500 5502 5505 5507 5509 5511 5512 5513 5514 5516 5517 5519 5522 5526 5529 5533 5536 5540 5543 5546 5549 5551 5554 5556 5559 5562 5566 5570 5574 5578 5582 5587 5591 5595 5599
5501 5502 5503 5505 5507 5509 5511 5513 5515 5516 5518 5519 5520 5522 5524 5527 5531 5535 5538 5541 5545 5547 5550 5553 5556 5559 5561 5563 5566 5569 5573 5577 5580 5584 5588 5592 5596 5600